Antigo, WI

6:16 AM CDT on April 26, 2017 (GMT -0500)
Langlade County

Weather History for KAIG - September, 2012

Change the Weather History Date:

Saturday, September 1, 2012

  Actual Average Record
Temperature  
Mean Temperature 62 °F -  
Max Temperature 77 °F 74 °F 93 °F (1953)
Min Temperature 46 °F 50 °F 32 °F (1974)
Degree Days  
Heating Degree Days 4    
Growing Degree Days 12 (Base 50)    
Moisture  
Dew Point 50 °F    
Average Humidity 64    
Maximum Humidity 93    
Minimum Humidity 39    
Precipitation  
Precipitation 0.00 in - - ()
Sea Level Pressure  
Sea Level Pressure 30.17 in    
Wind  
Wind Speed 6 mph (East)    
Max Wind Speed 15 mph    
Max Gust Speed 21 mph    
Visibility 10 miles    
Events      
Averages and records for this station are not official NWS values.
T = Trace of Precipitation, MM = Missing Value Source: NWS Daily Summary

Daily Weather History Graph

Daily Weather History Graph

Search for Another Location

Airport or City:

Trip Planner

Search our weather history database for the weather conditions in past years. The results will help you decide how hot, cold, wet, or windy it might be!

Date:

Astronomy

Sep. 01, 2012 Rise Set
Actual Time 6:18 AM CDT 7:32 PM CDT
Civil Twilight 5:48 AM CDT 8:03 PM CDT
Nautical Twilight 5:11 AM CDT 8:39 PM CDT
Astronomical Twilight 4:33 AM CDT 9:17 PM CDT
Moon 7:41 PM CDT (9/1) 7:32 AM CDT (9/1)
Length of Visible Light 14h 14m
Length of Day
13h 13m
Full, 99% of the Moon is Illuminated
Sep 1
Full
Sep 8
Last Quarter
Sep 15
New
Sep 22
First Quarter
Sep 29
Full

Hourly Weather History & Observations

Time (CDT) Temp. Windchill Dew Point Humidity Pressure Visibility Wind Dir Wind Speed Gust Speed Precip Events Conditions
12:15 AM 54.9 °F - 48.7 °F 80% 30.18 in 10.0 mi NE 5.8 mph - N/A   Clear
12:35 AM 54.9 °F - 48.6 °F 79% 30.19 in 10.0 mi NE 5.8 mph - N/A   Clear
12:55 AM 54.0 °F - 48.2 °F 81% 30.19 in 10.0 mi ENE 4.6 mph - N/A   Clear
1:15 AM 54.3 °F - 47.7 °F 78% 30.19 in 10.0 mi NE 4.6 mph - N/A   Clear
1:35 AM 54.7 °F - 46.8 °F 75% 30.19 in 10.0 mi ENE 5.8 mph - N/A   Clear
1:55 AM 55.8 °F - 46.6 °F 71% 30.19 in 10.0 mi ENE 5.8 mph - N/A   Clear
2:15 AM 56.8 °F - 47.1 °F 70% 30.20 in 10.0 mi ENE 4.6 mph - N/A   Clear
2:35 AM 53.6 °F - 47.3 °F 79% 30.20 in 10.0 mi ENE 3.5 mph - N/A   Clear
2:55 AM 52.2 °F - 46.9 °F 82% 30.20 in 10.0 mi Calm Calm - N/A   Clear
3:15 AM 50.5 °F - 46.2 °F 85% 30.20 in 10.0 mi Calm Calm - N/A   Clear
3:35 AM 50.7 °F - 46.6 °F 86% 30.21 in 10.0 mi North 4.6 mph - N/A   Clear
3:55 AM 50.2 °F - 46.6 °F 87% 30.21 in 10.0 mi Calm Calm - N/A   Clear
4:15 AM 50.4 °F - 46.6 °F 87% 30.21 in 10.0 mi NNE 3.5 mph - N/A   Clear
4:35 AM 49.1 °F - 46.0 °F 89% 30.21 in 10.0 mi Calm Calm - N/A   Clear
4:55 AM 49.1 °F - 46.2 °F 90% 30.21 in 10.0 mi Calm Calm - N/A   Clear
5:15 AM 48.2 °F - 45.3 °F 90% 30.21 in 10.0 mi North 3.5 mph - N/A   Clear
5:35 AM 47.7 °F - 45.7 °F 93% 30.21 in 10.0 mi Calm Calm - N/A   Clear
5:55 AM 46.6 °F - 44.4 °F 92% 30.21 in 10.0 mi Calm Calm - N/A   Clear
6:15 AM 47.3 °F - 44.8 °F 91% 30.22 in 10.0 mi NNE 3.5 mph - N/A   Clear
6:35 AM 46.4 °F 44.3 °F 44.1 °F 92% 30.22 in 10.0 mi NNE 4.6 mph - N/A   Clear
6:55 AM 47.5 °F - 45.0 °F 91% 30.22 in 10.0 mi Calm Calm - N/A   Clear
7:15 AM 50.5 °F - 47.5 °F 89% 30.22 in 10.0 mi NE 3.5 mph - N/A   Clear
7:35 AM 54.0 °F - 50.4 °F 88% 30.22 in 10.0 mi Calm Calm - N/A   Clear
8:15 AM 60.6 °F - 52.0 °F 73% 30.22 in 10.0 mi NE 3.5 mph - N/A   Clear
8:35 AM 63.1 °F - 52.5 °F 68% 30.22 in 10.0 mi NE 4.6 mph - N/A   Clear
8:55 AM 66.7 °F - 50.7 °F 56% 30.22 in 10.0 mi ENE 10.4 mph - N/A   Clear
9:15 AM 68.9 °F - 47.5 °F 46% 30.22 in 10.0 mi East 11.5 mph - N/A   Clear
9:35 AM 69.8 °F - 47.7 °F 45% 30.22 in 10.0 mi ENE 10.4 mph - N/A   Clear
10:15 AM 72.1 °F - 48.4 °F 43% 30.22 in 10.0 mi East 11.5 mph - N/A   Clear
10:35 AM 73.6 °F - 49.5 °F 43% 30.22 in 10.0 mi East 11.5 mph 16.1 mph N/A   Clear
10:55 AM 73.4 °F - 50.4 °F 44% 30.22 in 10.0 mi East 15.0 mph 19.6 mph N/A   Clear
11:15 AM 73.6 °F - 49.3 °F 42% 30.21 in 10.0 mi East 15.0 mph 18.4 mph N/A   Clear
11:35 AM 74.3 °F - 48.6 °F 40% 30.21 in 10.0 mi ENE 13.8 mph - N/A   Clear
11:55 AM 75.0 °F - 49.8 °F 41% 30.20 in 10.0 mi East 10.4 mph 16.1 mph N/A   Clear
12:15 PM 74.8 °F - 48.7 °F 40% 30.20 in 10.0 mi ENE 13.8 mph 19.6 mph N/A   Clear
12:35 PM 75.4 °F - 49.6 °F 40% 30.20 in 10.0 mi East 9.2 mph - N/A   Clear
12:55 PM 75.6 °F - 49.8 °F 40% 30.19 in 10.0 mi ENE 10.4 mph 18.4 mph N/A   Clear
1:15 PM 76.5 °F - 50.7 °F 40% 30.19 in 10.0 mi ENE 10.4 mph 17.3 mph N/A   Clear
1:35 PM 76.5 °F - 51.1 °F 41% 30.19 in 10.0 mi ENE 10.4 mph 19.6 mph N/A   Clear
1:55 PM 77.2 °F - 51.6 °F 41% 30.18 in 10.0 mi East 12.7 mph 20.7 mph N/A   Clear
2:15 PM 77.5 °F - 50.9 °F 39% 30.17 in 10.0 mi East 10.4 mph 17.3 mph N/A   Clear
2:35 PM 77.2 °F - 50.5 °F 39% 30.17 in 10.0 mi East 11.5 mph - N/A   Clear
2:55 PM 76.8 °F - 50.7 °F 40% 30.16 in 10.0 mi ENE 8.1 mph 16.1 mph N/A   Clear
3:15 PM 77.7 °F - 51.1 °F 39% 30.16 in 10.0 mi East 10.4 mph 17.3 mph N/A   Clear
3:35 PM 77.4 °F - 52.0 °F 41% 30.15 in 10.0 mi East 10.4 mph - N/A   Clear
3:55 PM 77.2 °F - 52.0 °F 41% 30.15 in 10.0 mi ESE 11.5 mph - N/A   Clear
4:15 PM 76.8 °F - 51.4 °F 41% 30.14 in 10.0 mi ESE 11.5 mph - N/A   Clear
4:35 PM 77.0 °F - 51.1 °F 40% 30.14 in 10.0 mi East 9.2 mph - N/A   Clear
4:55 PM 76.6 °F - 52.3 °F 43% 30.13 in 10.0 mi East 11.5 mph 16.1 mph N/A   Clear
5:15 PM 76.1 °F - 52.0 °F 43% 30.13 in 10.0 mi East 8.1 mph - N/A   Clear
5:35 PM 75.6 °F - 52.0 °F 44% 30.13 in 10.0 mi East 10.4 mph - N/A   Clear
5:55 PM 74.8 °F - 51.8 °F 44% 30.12 in 10.0 mi East 5.8 mph - N/A   Clear
6:15 PM 74.1 °F - 52.9 °F 47% 30.12 in 10.0 mi ESE 8.1 mph - N/A   Clear
6:35 PM 72.5 °F - 52.7 °F 50% 30.12 in 10.0 mi ESE 8.1 mph - N/A   Clear
6:55 PM 70.9 °F - 53.1 °F 53% 30.11 in 10.0 mi ESE 6.9 mph - N/A   Clear
7:15 PM 68.9 °F - 53.6 °F 58% 30.12 in 10.0 mi SE 6.9 mph - N/A   Clear
7:35 PM 65.1 °F - 53.4 °F 66% 30.12 in 10.0 mi SE 4.6 mph - N/A   Clear
7:55 PM 63.0 °F - 53.6 °F 71% 30.12 in 10.0 mi SE 4.6 mph - N/A   Clear
8:15 PM 61.5 °F - 53.2 °F 74% 30.13 in 10.0 mi ESE 4.6 mph - N/A   Clear
8:35 PM 61.9 °F - 52.3 °F 71% 30.13 in 10.0 mi ESE 4.6 mph - N/A   Clear
8:55 PM 61.7 °F - 52.2 °F 71% 30.13 in 10.0 mi East 3.5 mph - N/A   Clear
9:15 PM 60.3 °F - 51.3 °F 72% 30.13 in 10.0 mi ENE 3.5 mph - N/A   Clear
9:35 PM 57.9 °F - 51.8 °F 80% 30.13 in 10.0 mi East 4.6 mph - N/A   Clear
9:55 PM 59.0 °F - 51.6 °F 76% 30.13 in 10.0 mi East 5.8 mph - N/A   Clear
10:15 PM 61.5 °F - 51.8 °F 70% 30.13 in 10.0 mi East 6.9 mph - N/A   Clear
10:35 PM 61.3 °F - 51.4 °F 70% 30.13 in 10.0 mi East 6.9 mph - N/A   Clear
10:55 PM 60.4 °F - 50.9 °F 71% 30.13 in 10.0 mi East 5.8 mph - N/A   Clear
11:15 PM 57.2 °F - 50.2 °F 77% 30.12 in 10.0 mi ENE 5.8 mph - N/A   Clear
11:35 PM 58.5 °F - 49.8 °F 73% 30.12 in 10.0 mi East 5.8 mph - N/A   Clear
11:55 PM 55.4 °F - 49.3 °F 80% 30.12 in 10.0 mi East 5.8 mph - N/A   Clear